Weather Roundup
Issued by NWS Springfield, MO

Home | Current Version | Previous Version | Text Only | Print | Product List | Glossary On
Versions: 1 2 3 4 5 6 7 8 9 10 11 12 13 14 15 16 17 18 19 20 21 22 23 24 25 26 27 28 29 30 31 32 33 34 35 36 37 38 39 40 41 42 43 44 45 46 47 48 49 50
463
NZUS99 KSGF 051507
HRRSGF

HOURLY WEATHER
NATIONAL WEATHER SERVICE SPRINGFIELD MO
1000 AM CDT THU MAY 05 2016

......SGF CWA......

CITY           SKY/WX    TMP DP  RH WIND       PRES   REMARKS
SPRINGFIELD    SUNNY     63  42  46 NW9       30.06R
JOPLIN         SUNNY     64  46  52 NW9       30.09R
WEST PLAINS    SUNNY     62  36  37 N10       30.04R
ROLLA          SUNNY     57  41  55 N9        30.03R
OSAGE BEACH    SUNNY     61  37  41 NE3       30.06S
BRANSON        SUNNY     63  41  45 NW8       30.07R

......SURROUNDING SGF CWA......

CITY           SKY/WX    TMP DP  RH WIND       PRES   REMARKS
CHANUTE        SUNNY     66  43  43 NW6       30.11R
PARSONS        SUNNY     66  45  46 NW7       30.11S
COFFEYVILLE    SUNNY     65  46  50 NW8       30.10S
EMPORIA        SUNNY     64  44  48 NW5       30.11S
GROVE OK       SUNNY     63  50  63 CALM      30.11R
ROGERS AR      SUNNY     63  43  48 NW8       30.09S
SILOAM SPRINGS SUNNY     63  45  51 NW6       30.11R
HARRISON AR    SUNNY     64  42  44 NW8       30.06R
NEAR YELLVILLE SUNNY    N/A N/A N/A N9G16     30.02R

......KANSAS AND MISSOURI......

CITY           SKY/WX    TMP DP  RH WIND       PRES   REMARKS
KANSAS CTY INT MOSUNNY   62  42  47 VRB3      30.09R
DOWNTOWN KC    SUNNY     63  44  50 CALM      30.09R
COLUMBIA       SUNNY     59  39  47 N10       30.06R
SEDALIA        SUNNY     61  41  47 N6        30.09R
ST JOSEPH      SUNNY     60  44  55 VRB3      30.09S
ST LOUIS       MOSUNNY   56  38  50 N15G28    30.03R
SPIRIT OF STL  MOSUNNY   55  39  54 N12       30.03R
KIRKSVILLE     SUNNY     56  37  49 NE9       30.09R
WICHITA        SUNNY     66  42  41 N3        30.13R
TOPEKA         SUNNY     63  46  54 W8        30.10R
OLATHE         SUNNY     62  41  46 CALM      30.09R

......TENNESSEE......

CITY           SKY/WX    TMP DP  RH WIND       PRES   REMARKS
MEMPHIS        MOSUNNY   66  44  45 NW13      29.97R
NASHVILLE      MOSUNNY   58  38  47 NW16      29.83S

......ARKANSAS.......

CITY           SKY/WX    TMP DP  RH WIND       PRES   REMARKS
FAYETTEVILLE   SUNNY     63  43  48 NW9       30.09R
FT SMITH       SUNNY     65  46  50 W6        30.08R
LITTLE ROCK    SUNNY     68  42  38 NW12      30.04R

......OKLAHOMA.......

CITY           SKY/WX    TMP DP  RH WIND       PRES   REMARKS
TULSA          SUNNY     66  49  54 CALM      30.09S
PONCA CITY     SUNNY     65  48  54 CALM      30.13R
MCALESTER      SUNNY     66  45  46 VRB3      30.11R
OKLAHOMA CITY  SUNNY     69  41  36 VRB3      30.13R

......IOWA............

CITY           SKY/WX    TMP DP  RH WIND       PRES   REMARKS
DES MOINES     MOSUNNY   58  32  37 NE3       30.10S
QUAD CITIES    SUNNY     53  36  52 NE9       30.06

......ILLINOIS........

CITY           SKY/WX    TMP DP  RH WIND       PRES   REMARKS
QUINCY         SUNNY     54  41  61 N10       30.06R
CHICAGO        MOSUNNY   52  39  61 N13       30.00R




USA.gov is the U.S. government's official web portal to all federal, state and local government web resources and services.